Location: Haieshausen
(51.8387°N, 9.9720°E)
Time: 03:40:55
(UTC+00:00)

COSMOS 2406 - Pass Details

Date: 14 July 2020
Orbit: 844 x 863 km, 71.0° (Epoch: 10 August)

Event Time Altitude Azimuth Distance (km) Brightness Sun altitude
Exits shadow 00:49:37 19° 179° (S) 1,955 4.5 -14.3°
Maximum altitude 00:53:36 50° 111° (ESE) 1,091 3.8 -14.1°
Drops below altitude 10° 00:59:08 10° 38° (NE) 2,510 6.9 -13.8°
Sets 01:01:40 0° 34° (NNE) 3,449 8.2 -13.6°
